Location: Borderline Observatory
(42.7345°N, 72.8696°W)
Time: 03:17:17
(UTC-05:00)

Daily predictions for brighter satellites

Satellite Brightness Start Highest point End
(mag) Time Altitude Azimuth Time Altitude Azimuth Time Altitude Azimuth
CZ-4C R/B 3.5 03:37:32 51° ENE 03:37:32 51° ENE 03:44:12 10° SE
USA 234 4.4 03:38:55 10° NE 03:42:38 36° NNE 03:42:38 36° NNE
CENTAUR R/B 4.4 03:57:25 21° N 03:57:25 21° N 04:00:23 10° NNE
COSMO-SKYMED 1 4.4 04:16:17 10° SE 04:19:59 28° ENE 04:20:18 28° ENE
ATLAS CENTAUR R/B 3.4 04:22:18 27° E 04:22:18 27° E 04:24:53 10° ESE
BREEZE-M DEB (TANK) 4.0 04:23:47 47° NNE 04:23:47 47° NNE 04:26:36 10° ENE
Tiangong 2 4.4 04:33:17 14° E 04:33:17 14° E 04:33:48 10° E
Okean-O 4.4 04:30:28 10° NNE 04:34:27 31° E 04:38:23 10° SSE
Cosmos 1709 Rocket 3.9 04:34:14 80° SSW 04:34:36 86° W 04:41:02 10° N
DELTA 2 R/B (1) 4.4 04:36:18 40° S 04:36:18 40° S 04:40:32 10° SE
Cosmos-2242 4.0 04:42:06 10° SSE 04:46:12 44° E 04:50:18 10° NNE
Cosmos 2278 Rocket 2.4 04:47:12 19° S 04:51:16 70° ESE 04:56:55 10° NNE
Cosmos 1408 Rocket 4.0 04:57:47 25° N 05:00:14 60° E 05:04:34 10° SSE
Cosmos 1844 Rocket 3.7 05:02:25 29° NNW 05:02:25 29° NNW 05:05:39 10° N
Cosmos 371 Rocket 3.1 05:02:17 74° WSW 05:02:17 74° WSW 05:07:09 10° SSE
Cosmos 1741 Rocket 3.9 04:59:52 33° SSW 05:02:17 87° WNW 05:07:34 10° NNE
IRS-1C Rocket 4.5 04:58:26 10° N 05:02:26 45° NNW 05:02:26 45° NNW
BREEZE-M DEB (TANK) 3.8 05:05:20 38° N 05:05:48 40° NNE 05:13:04 10° E
SKYMED 2 3.4 05:03:32 10° SSE 05:07:53 89° WSW 05:08:54 53° NNW
SL-08 ROCKET BODY 4.2 05:05:25 10° SSW 05:11:12 63° W 05:17:05 10° N
Feng Yun 1-1 Rocket 4.1 05:08:51 10° NNE 05:14:17 89° ESE 05:19:40 10° SSW
Shenzhou-11 Module 2.4 05:22:43 60° E 05:22:43 60° E 05:25:15 10° E
Cosmos 2074 Rocket 3.9 05:16:29 10° S 05:22:42 85° W 05:28:56 10° N
Cosmos 1844 4.4 05:24:37 33° NW 05:24:37 33° NW 05:29:30 10° N
CZ-4C R/B 3.4 05:22:46 33° W 05:25:00 40° WSW 05:32:19 10° S
USA 234 4.2 05:22:09 10° NE 05:27:42 31° NNW 05:30:00 25° NW
Abrixas rocket 2.3 05:27:51 62° SSW 05:27:51 62° SSW 05:30:55 10° SE
Cosmos 1743 Rocket 4.1 05:23:59 10° N 05:28:16 58° E 05:32:32 10° SSE
FAST Rocket 4.3 05:25:36 10° S 05:28:21 82° E 05:32:14 10° N
Cosmos 1626 2.0 05:29:06 55° NW 05:29:38 62° W 05:33:18 10° S
Meteor 1-16 Rocket 4.1 05:24:16 10° SSW 05:29:46 60° WNW 05:35:09 10° N
Cosmos 1328 4.2 05:30:44 42° WSW 05:30:44 42° WSW 05:33:59 10° SSW
Cosmos 2082 Rocket 2.4 05:27:25 11° NNW 05:32:48 71° ENE 05:38:23 10° SSE
Cosmos 1908 4.2 05:31:11 10° S 05:34:58 50° E 05:38:47 10° NNE
Cosmos 2181 Rocket 4.5 05:31:32 10° NNW 05:37:05 35° W 05:42:34 10° SSW
Milstar 3 4.3 05:34:43 11° SW 05:40:31 26° S 05:45:51 10° SE
PAYLOAD A 3.9 05:38:38 10° N 05:43:21 51° WNW 05:47:55 10° SW
IDEFIX/ARIANE 42P 2.6 05:38:27 10° N 05:43:35 54° WNW 05:48:42 10° SSW
Meteor 1-11 4.3 05:38:47 10° NNW 05:44:27 58° W 05:50:08 10° S
Cosmos 1766 Rocket 4.1 05:45:44 26° NW 05:47:20 35° W 05:51:21 10° SSW
CENTAUR R/B 4.5 05:44:35 12° NW 05:47:36 15° N 05:51:36 10° NNE
USA 229 DEB 3.6 05:40:57 10° SW 05:47:40 70° NW 05:54:38 10° NNE
USA 229 3.6 05:41:03 10° SW 05:47:47 71° NW 05:54:44 10° NNE
Cosmos 2208 Rocket 4.4 05:44:54 19° NW 05:48:28 43° WSW 05:53:35 10° S
NOSS 3-1 (A) 4.3 05:44:48 10° S 05:50:14 49° ESE 05:56:19 10° NE
Cosmos 1703 3.3 05:47:30 10° NNW 05:51:22 56° W 05:55:12 10° S
GPS 2-04 Rocket1 4.3 05:52:01 17° WSW 05:54:26 28° S 05:58:06 10° SE
Thor Agena Rocket 3.9 05:49:25 10° SSE 05:54:37 71° ENE 05:59:55 10° N
Cosmos 304 Rocket 3.7 05:51:03 11° NNW 05:55:40 65° WSW 06:00:24 10° S
Radarsat Rocket 4.1 05:49:28 10° N 05:56:00 59° WNW 06:01:52 10° SW
COSMO-SKYMED 1 3.5 05:52:25 10° SSW 05:56:05 27° W 05:57:31 22° WNW
SJ-12 3.8 05:54:00 10° N 05:58:06 70° WNW 06:02:12 10° SSW
Cosmos 468 Rocket 4.2 05:54:04 11° NNW 05:58:52 51° WSW 06:03:54 10° S
Cosmos 1833 Rocket 2.7 05:53:25 10° NNW 05:59:02 69° WSW 06:04:38 10° SSE
Cosmos 2297 3.7 05:53:51 10° SSW 05:59:35 82° WNW 06:05:21 10° NNE
ATLAS CENTAUR R/B 2.4 05:58:36 23° W 05:59:55 27° WSW 06:03:37 10° S
SL-27 R/B 3.2 05:58:33 24° WNW 06:00:04 34° WSW 06:03:23 10° S
CZ-2C R/B 2.5 05:57:14 10° N 06:01:39 46° WNW 06:06:09 10° SW
USA 102 3.6 05:58:12 10° SSE 06:02:01 53° WSW 06:03:14 30° NW
Cosmos 1814 Rocket 3.9 05:57:31 10° NNW 06:02:44 76° WSW 06:07:52 10° SSE
Cosmos 2341 Rocket 4.2 05:58:09 10° S 06:04:20 76° E 06:10:33 10° N
Centaur D-1A AC-31 3.9 06:00:05 10° SW 06:04:41 28° SSE 06:19:05 10° ESE
Meteor 2-1 Rocket 4.1 05:59:16 10° SSW 06:04:46 75° W 06:10:23 10° N
Cosmos 841 Rocket 3.6 06:00:19 10° NNW 06:05:31 80° ENE 06:10:39 10° SSE
Meteor 2-15 4.4 05:59:28 10° N 06:05:34 89° E 06:11:38 10° S
Tiangong 2 1.0 06:05:33 22° W 06:07:27 89° NW 06:10:40 10° E
Cosmos 1842 Rocket 3.7 06:05:48 10° SSW 06:10:12 56° W 06:14:38 10° N
Okean-O 3.6 06:07:08 10° NNW 06:10:48 25° WNW 06:14:25 10° WSW
Cosmos 1484 Rocket 2.6 06:07:19 10° N 06:11:04 82° WNW 06:14:50 10° SSW
Cosmos 1174 4.4 06:09:10 18° WNW 06:11:24 32° WSW 06:14:25 10° S
Cosmos 2058 3.3 06:08:36 10° NNW 06:12:36 42° W 06:16:33 10° SSW
Cosmos 1763 Rocket 3.5 06:09:36 10° NNW 06:14:38 62° WSW 06:19:40 10° S
Cosmos 2154 Rocket 4.0 06:09:51 10° SSW 06:15:59 62° W 06:22:10 10° N
Cosmos-2242 4.5 06:21:20 10° WSW 06:24:01 16° WNW 06:26:42 10° NNW
Meteor 2-10 4.4 06:18:55 10° S 06:24:11 69° E 06:29:18 10° NNE
Cosmos 1486 Rocket 4.0 06:19:13 10° SSW 06:24:32 80° WNW 06:29:55 10° NNE
CORIOLIS 4.4 06:21:22 10° NNE 06:26:47 76° ESE 06:32:11 10° S
CZ-4 R/B 1.6 06:24:37 10° NNE 06:28:44 79° ESE 06:32:43 10° S
Meteor 2-15 Rocket 4.4 06:26:40 10° NNW 06:32:41 68° W 06:38:41 10° S
Cosmos 2151 3.9 06:30:39 10° NNW 06:34:17 27° W 06:37:53 10° SSW
Cosmos 1300 2.8 06:31:21 10° S 06:35:10 83° E 06:39:02 10° N
Cosmos 2278 Rocket 3.4 06:31:44 10° W 06:35:54 21° NW 06:40:06 10° N
CSL-04 Rocket 3.6 06:32:14 10° N 06:37:36 72° WNW 06:42:52 10° SSW
Lacrosse 5 rocket 4.2 06:37:28 10° S 06:40:09 19° ESE 06:42:54 10° ENE
SL-8 Rocket 4.0 06:34:07 10° S 06:40:17 89° W 06:46:29 10° N
NOSS 3-1 (C) 3.5 06:35:06 10° SW 06:40:44 56° NW 06:47:10 10° NNE
Cosmos 1818 3.6 06:36:27 10° SSW 06:41:53 89° ESE 06:47:22 10° NNE
Ariane Rocket 3.0 06:38:26 10° N 06:43:32 72° WNW 06:48:35 10° SSW
Meteor 2-14 Rocket 4.5 06:37:32 10° SSW 06:43:38 64° W 06:49:44 10° N
Cosmos 2218 Rocket 4.1 06:42:03 10° S 06:48:23 88° E 06:54:42 10° N
